No particular awareness of the weather is required.    There are no Weather-warnings


Meteo18 Weather Cam more information Meteo18 Weather Cam


Thunder radar more information blitzortung!


Rain radar more information rain snow radar


Visit our other weather sites:

Template documentation
and downloads

And another site



Weather Underground History page Text

Daily Summary for March 18, 2017 Units:  English    Metric   Both
« Previous Day
Next Day »
Daily Weekly Monthly Yearly Custom
  High: Low: Average:
Temperature: TemperatureC °F 6.4 °F 8.2 °F
Dew Point: DewpointC °F 4.7 °F 6.5 °F
Humidity: Humidity % 83 % 88 %
Wind Speed: WindSpeedKMH mph 0.0 mph 12.1 mph
Wind Gust: WindSpeedGustKMH mph - -
Wind:- - WSW
Pressure: PressurehPa in 1019.9 in -
Precipitation: 0.0 in    
Historical Graphs
 
 
Tabular Data for March 18, 2017
Time Temperature Dew Point Pressure Wind Wind Speed Wind Gust Humidity Rainfall Rate (Hourly)
TemperatureC °F DewpointC °F PressurehPa in Calm     Humidity % HourlyPrecipMM in
00:02 7.4 °F 4.7 °F 1021.6 in West 4.8 mph 8.0 mph 83 % 0.0 in
00:07 7.4 °F 4.9 °F 1021.6 in Calm   8.0 mph 84 % 0.0 in
00:12 7.3 °F 4.8 °F 1021.6 in SW 1.6 mph 8.0 mph 84 % 0.0 in
00:17 7.3 °F 4.8 °F 1021.6 in WSW 3.2 mph 8.0 mph 84 % 0.0 in
00:22 7.2 °F 4.8 °F 1021.6 in West 1.6 mph 8.0 mph 85 % 0.0 in
00:32 7.2 °F 4.8 °F 1021.6 in West 1.6 mph 6.4 mph 85 % 0.0 in
00:42 7.1 °F 4.7 °F 1021.6 in West 4.8 mph 8.0 mph 85 % 0.0 in
00:47 7.1 °F 4.9 °F 1021.6 in WSW 3.2 mph 9.7 mph 86 % 0.0 in
00:52 7.1 °F 4.9 °F 1021.6 in West 1.6 mph 9.7 mph 86 % 0.0 in
00:57 7.2 °F 5.0 °F 1021.6 in WNW 3.2 mph 8.0 mph 86 % 0.0 in
01:02 7.2 °F 5.0 °F 1021.6 in WSW 3.2 mph 8.0 mph 86 % 0.0 in
01:07 7.2 °F 5.0 °F 1021.2 in West 1.6 mph 9.7 mph 86 % 0.0 in
01:12 7.3 °F 4.9 °F 1021.2 in WSW 6.4 mph 11.3 mph 85 % 0.0 in
01:17 7.3 °F 4.9 °F 1021.2 in SW 4.8 mph 12.9 mph 85 % 0.0 in
01:22 7.2 °F 4.8 °F 1021.2 in SW 6.4 mph 12.9 mph 85 % 0.0 in
01:27 7.1 °F 4.7 °F 1021.2 in WSW 8.0 mph 11.3 mph 85 % 0.0 in
01:32 7.0 °F 4.8 °F 1021.2 in WSW 4.8 mph 11.3 mph 86 % 0.0 in
01:37 7.1 °F 5.1 °F 1021.2 in WSW 6.4 mph 11.3 mph 87 % 0.0 in
01:42 7.1 °F 5.1 °F 1021.6 in SW 4.8 mph 14.5 mph 87 % 0.0 in
01:47 7.1 °F 5.1 °F 1021.6 in SW 1.6 mph 14.5 mph 87 % 0.0 in
01:52 7.0 °F 5.0 °F 1021.6 in West 6.4 mph 12.9 mph 87 % 0.0 in
01:57 6.9 °F 4.9 °F 1021.6 in WSW 6.4 mph 12.9 mph 87 % 0.0 in
02:02 6.9 °F 4.9 °F 1021.6 in WSW 1.6 mph 11.3 mph 87 % 0.0 in
02:07 6.9 °F 4.9 °F 1021.6 in WSW 4.8 mph 11.3 mph 87 % 0.0 in
02:12 6.9 °F 4.9 °F 1021.6 in SW 6.4 mph 12.9 mph 87 % 0.0 in
02:17 6.9 °F 4.9 °F 1021.6 in SW 3.2 mph 12.9 mph 87 % 0.0 in
02:22 6.8 °F 4.8 °F 1021.2 in SW 6.4 mph 12.9 mph 87 % 0.0 in
02:27 6.7 °F 5.0 °F 1021.2 in SW 4.8 mph 12.9 mph 89 % 0.0 in
02:32 6.8 °F 5.0 °F 1021.2 in SW 4.8 mph 12.9 mph 88 % 0.0 in
02:37 6.7 °F 4.9 °F 1021.6 in SW 6.4 mph 17.7 mph 88 % 0.0 in
02:42 6.4 °F 4.7 °F 1021.2 in SW 9.7 mph 11.3 mph 89 % 0.0 in
02:47 6.4 °F 4.9 °F 1021.2 in SW 4.8 mph 12.9 mph 90 % 0.0 in
02:52 6.4 °F 4.9 °F 1021.2 in SW 3.2 mph 14.5 mph 90 % 0.0 in
03:02 6.7 °F 5.0 °F 1020.9 in SW 8.0 mph 14.5 mph 89 % 0.0 in
03:07 6.7 °F 4.9 °F 1020.9 in SSW 9.7 mph 17.7 mph 88 % 0.0 in
03:12 6.7 °F 4.9 °F 1020.9 in SSW 6.4 mph 17.7 mph 88 % 0.0 in
03:17 6.7 °F 4.9 °F 1020.9 in SW 4.8 mph 17.7 mph 88 % 0.0 in
03:22 6.6 °F 4.9 °F 1020.9 in WSW 8.0 mph 12.9 mph 89 % 0.0 in
03:27 6.6 °F 4.9 °F 1020.9 in SW 11.3 mph 11.3 mph 89 % 0.0 in
03:32 6.7 °F 5.0 °F 1020.5 in WSW 12.9 mph 14.5 mph 89 % 0.0 in
03:37 6.8 °F 5.0 °F 1020.5 in SW 9.7 mph 17.7 mph 88 % 0.0 in
03:42 6.8 °F 5.0 °F 1020.9 in WSW 9.7 mph 19.3 mph 88 % 0.0 in
03:47 6.8 °F 5.0 °F 1020.9 in WSW 17.7 mph 19.3 mph 88 % 0.0 in
03:52 6.8 °F 5.0 °F 1020.9 in WSW 8.0 mph 19.3 mph 88 % 0.0 in
03:57 6.8 °F 5.0 °F 1020.9 in SSW 8.0 mph 19.3 mph 88 % 0.0 in
04:02 6.8 °F 5.0 °F 1020.9 in West 8.0 mph 19.3 mph 88 % 0.0 in
04:07 6.8 °F 5.1 °F 1020.9 in WSW 8.0 mph 20.9 mph 89 % 0.0 in
04:12 6.8 °F 5.1 °F 1020.9 in WSW 16.1 mph 20.9 mph 89 % 0.0 in
04:17 6.8 °F 5.0 °F 1020.9 in SW 9.7 mph 20.9 mph 88 % 0.0 in
04:22 6.8 °F 5.0 °F 1020.5 in WSW 8.0 mph 20.9 mph 88 % 0.0 in
04:27 6.8 °F 5.1 °F 1020.5 in SSW 3.2 mph 20.9 mph 89 % 0.0 in
04:32 6.7 °F 5.0 °F 1020.5 in SW 11.3 mph 20.9 mph 89 % 0.0 in
04:37 6.6 °F 4.9 °F 1020.5 in SSW 11.3 mph 14.5 mph 89 % 0.0 in
04:42 6.6 °F 4.9 °F 1020.5 in SW 12.9 mph 19.3 mph 89 % 0.0 in
04:47 6.5 °F 5.0 °F 1020.5 in SW 11.3 mph 19.3 mph 90 % 0.0 in
04:52 6.4 °F 4.9 °F 1020.5 in SSW 6.4 mph 19.3 mph 90 % 0.0 in
04:57 6.4 °F 4.9 °F 1020.5 in SW 8.0 mph 19.3 mph 90 % 0.0 in
05:02 6.4 °F 4.9 °F 1020.5 in SW 9.7 mph 19.3 mph 90 % 0.0 in
05:12 6.4 °F 4.9 °F 1020.5 in SW 3.2 mph 16.1 mph 90 % 0.0 in
05:17 6.5 °F 5.0 °F 1020.5 in SSW 9.7 mph 19.3 mph 90 % 0.0 in
05:22 6.5 °F 5.0 °F 1020.5 in SW 14.5 mph 19.3 mph 90 % 0.0 in
05:27 6.6 °F 5.1 °F 1020.5 in SW 6.4 mph 19.3 mph 90 % 0.0 in
05:32 6.6 °F 5.2 °F 1020.5 in SW 9.7 mph 19.3 mph 91 % 0.0 in
05:42 6.6 °F 5.2 °F 1020.2 in WSW 16.1 mph 20.9 mph 91 % 0.0 in
05:52 6.6 °F 5.2 °F 1020.2 in West 14.5 mph 19.3 mph 91 % 0.0 in
05:57 6.7 °F 5.3 °F 1020.2 in SW 4.8 mph 20.9 mph 91 % 0.0 in
06:02 6.7 °F 5.3 °F 1020.5 in SW 14.5 mph 20.9 mph 91 % 0.0 in
06:12 6.8 °F 5.3 °F 1020.2 in WSW 9.7 mph 19.3 mph 90 % 0.0 in
06:17 6.9 °F 5.4 °F 1020.2 in SSW 9.7 mph 17.7 mph 90 % 0.0 in
06:22 6.9 °F 5.4 °F 1020.2 in WSW 9.7 mph 17.7 mph 90 % 0.0 in
06:32 7.1 °F 5.6 °F 1020.2 in SW 14.5 mph 22.5 mph 90 % 0.0 in
06:42 7.1 °F 5.6 °F 1020.2 in SW 11.3 mph 25.7 mph 90 % 0.0 in
06:47 7.1 °F 5.4 °F 1020.2 in WSW 14.5 mph 25.7 mph 89 % 0.0 in
06:52 7.1 °F 5.4 °F 1020.2 in WSW 17.7 mph 25.7 mph 89 % 0.0 in
06:57 7.1 °F 5.4 °F 1020.2 in SW 11.3 mph 25.7 mph 89 % 0.0 in
07:02 7.2 °F 5.5 °F 1020.2 in WSW 16.1 mph 25.7 mph 89 % 0.0 in
07:12 7.2 °F 5.5 °F 1020.2 in WSW 6.4 mph 25.7 mph 89 % 0.0 in
07:22 7.2 °F 5.3 °F 1020.2 in WSW 12.9 mph 25.7 mph 88 % 0.0 in
07:32 7.2 °F 5.3 °F 1020.2 in WSW 14.5 mph 29.0 mph 88 % 0.0 in
07:37 7.2 °F 5.3 °F 1020.2 in WSW 12.9 mph 29.0 mph 88 % 0.0 in
07:42 7.2 °F 5.3 °F 1020.2 in WSW 12.9 mph 29.0 mph 88 % 0.0 in
07:47 7.1 °F 5.2 °F 1020.2 in SSW 9.7 mph 32.2 mph 88 % 0.0 in
07:52 7.1 °F 5.2 °F 1019.9 in WNW 25.7 mph 32.2 mph 88 % 0.0 in
08:02 7.1 °F 5.1 °F 1019.9 in SW 20.9 mph 25.7 mph 87 % 0.0 in
08:07 7.1 °F 5.2 °F 1019.9 in West 20.9 mph 35.4 mph 88 % 0.0 in
08:12 7.1 °F 5.1 °F 1019.9 in WSW 14.5 mph 35.4 mph 87 % 0.0 in
08:17 7.1 °F 5.1 °F 1019.9 in WSW 20.9 mph 37.0 mph 87 % 0.0 in
08:22 7.1 °F 5.1 °F 1020.2 in WSW 17.7 mph 37.0 mph 87 % 0.0 in
08:32 7.0 °F 5.0 °F 1020.2 in SW 19.3 mph 37.0 mph 87 % 0.0 in
08:37 6.9 °F 4.9 °F 1020.5 in West 11.3 mph 33.8 mph 87 % 0.0 in
08:42 6.9 °F 5.1 °F 1020.5 in WSW 20.9 mph 33.8 mph 88 % 0.0 in
08:47 6.9 °F 5.1 °F 1020.5 in West 8.0 mph 27.4 mph 88 % 0.0 in
08:52 6.8 °F 5.0 °F 1020.5 in SW 16.1 mph 27.4 mph 88 % 0.0 in
08:57 6.8 °F 5.1 °F 1020.5 in WSW 16.1 mph 24.1 mph 89 % 0.0 in
09:02 6.8 °F 5.0 °F 1020.5 in West 19.3 mph 24.1 mph 88 % 0.0 in
09:07 6.9 °F 5.1 °F 1020.5 in WSW 14.5 mph 30.6 mph 88 % 0.0 in
09:12 6.9 °F 5.1 °F 1020.5 in West 11.3 mph 30.6 mph 88 % 0.0 in
09:17 6.9 °F 5.1 °F 1020.5 in WSW 30.6 mph 30.6 mph 88 % 0.0 in
09:22 6.8 °F 5.1 °F 1020.5 in West 22.5 mph 30.6 mph 89 % 0.0 in
09:32 6.8 °F 5.1 °F 1020.9 in WSW 9.7 mph 30.6 mph 89 % 0.0 in
09:37 6.9 °F 5.2 °F 1020.5 in West 16.1 mph 30.6 mph 89 % 0.0 in
09:42 6.9 °F 5.4 °F 1020.9 in West 4.8 mph 30.6 mph 90 % 0.0 in
09:47 6.9 °F 5.4 °F 1020.9 in WSW 8.0 mph 29.0 mph 90 % 0.0 in
09:52 6.9 °F 5.4 °F 1020.9 in West 14.5 mph 29.0 mph 90 % 0.0 in
10:02 7.1 °F 5.6 °F 1020.9 in WSW 4.8 mph 35.4 mph 90 % 0.0 in
10:12 7.3 °F 5.6 °F 1020.9 in WSW 20.9 mph 35.4 mph 89 % 0.0 in
10:17 7.3 °F 5.6 °F 1020.9 in WSW 29.0 mph 29.0 mph 89 % 0.0 in
10:22 7.3 °F 5.6 °F 1021.2 in WSW 19.3 mph 25.7 mph 89 % 0.0 in
10:27 7.4 °F 5.7 °F 1021.2 in SW 11.3 mph 33.8 mph 89 % 0.0 in
10:37 7.4 °F 5.7 °F 1021.2 in West 16.1 mph 33.8 mph 89 % 0.0 in
10:42 7.4 °F 5.7 °F 1021.2 in WSW 9.7 mph 33.8 mph 89 % 0.0 in
10:47 7.5 °F 5.8 °F 1021.2 in WSW 14.5 mph 35.4 mph 89 % 0.0 in
10:52 7.4 °F 5.7 °F 1021.6 in SW 16.1 mph 35.4 mph 89 % 0.0 in
11:02 7.4 °F 5.7 °F 1021.6 in WNW 14.5 mph 29.0 mph 89 % 0.0 in
11:12 7.5 °F 6.0 °F 1021.6 in West 14.5 mph 32.2 mph 90 % 0.0 in
11:17 7.5 °F 6.0 °F 1021.6 in SW 14.5 mph 29.0 mph 90 % 0.0 in
11:22 7.5 °F 6.0 °F 1021.6 in West 19.3 mph 29.0 mph 90 % 0.0 in
11:27 7.6 °F 6.1 °F 1021.6 in WSW 17.7 mph 33.8 mph 90 % 0.0 in
11:32 7.6 °F 6.1 °F 1021.6 in WSW 19.3 mph 33.8 mph 90 % 0.0 in
11:37 7.7 °F 6.2 °F 1021.9 in WSW 24.1 mph 33.8 mph 90 % 0.0 in
11:42 7.6 °F 6.1 °F 1021.9 in West 16.1 mph 37.0 mph 90 % 0.0 in
11:47 7.7 °F 6.2 °F 1021.6 in West 11.3 mph 37.0 mph 90 % 0.0 in
11:52 7.7 °F 6.2 °F 1021.6 in WSW 16.1 mph 37.0 mph 90 % 0.0 in
11:57 7.7 °F 6.2 °F 1021.6 in West 12.9 mph 33.8 mph 90 % 0.0 in
12:02 7.8 °F 6.3 °F 1021.9 in WNW 11.3 mph 33.8 mph 90 % 0.0 in
12:12 7.8 °F 6.3 °F 1021.6 in WSW 8.0 mph 29.0 mph 90 % 0.0 in
12:17 7.8 °F 6.3 °F 1021.6 in WSW 9.7 mph 29.0 mph 90 % 0.0 in
12:22 7.9 °F 6.4 °F 1021.6 in WSW 16.1 mph 29.0 mph 90 % 0.0 in
12:27 7.9 °F 6.4 °F 1021.6 in WSW 16.1 mph 29.0 mph 90 % 0.0 in
12:32 8.0 °F 6.5 °F 1021.6 in WSW 14.5 mph 27.4 mph 90 % 0.0 in
12:37 8.1 °F 6.6 °F 1021.6 in WSW 9.7 mph 27.4 mph 90 % 0.0 in
12:42 8.1 °F 6.6 °F 1021.6 in WSW 17.7 mph 24.1 mph 90 % 0.0 in
12:47 8.2 °F 6.5 °F 1021.6 in West 16.1 mph 27.4 mph 89 % 0.0 in
12:52 8.2 °F 6.7 °F 1021.6 in WSW 16.1 mph 27.4 mph 90 % 0.0 in
12:57 8.2 °F 6.7 °F 1021.6 in WSW 24.1 mph 25.7 mph 90 % 0.0 in
13:02 8.3 °F 6.8 °F 1021.6 in WSW 24.1 mph 25.7 mph 90 % 0.0 in
13:12 8.3 °F 6.8 °F 1021.6 in WSW 24.1 mph 32.2 mph 90 % 0.0 in
13:17 8.3 °F 6.8 °F 1021.6 in SW 12.9 mph 32.2 mph 90 % 0.0 in
13:22 8.4 °F 6.9 °F 1021.6 in WSW 14.5 mph 32.2 mph 90 % 0.0 in
13:27 8.4 °F 6.9 °F 1021.2 in WSW 14.5 mph 32.2 mph 90 % 0.0 in
13:32 8.4 °F 6.9 °F 1021.2 in West 16.1 mph 32.2 mph 90 % 0.0 in
13:37 8.6 °F 7.1 °F 1021.2 in WSW 16.1 mph 29.0 mph 90 % 0.0 in
13:42 8.7 °F 7.2 °F 1021.2 in SSW 11.3 mph 35.4 mph 90 % 0.0 in
13:47 8.8 °F 7.1 °F 1021.2 in WSW 12.9 mph 35.4 mph 89 % 0.0 in
13:52 8.9 °F 7.2 °F 1021.2 in West 19.3 mph 35.4 mph 89 % 0.0 in
13:57 9.0 °F 7.3 °F 1021.2 in WSW 16.1 mph 27.4 mph 89 % 0.0 in
14:02 9.0 °F 7.3 °F 1020.9 in WSW 16.1 mph 27.4 mph 89 % 0.0 in
14:07 9.0 °F 7.3 °F 1020.9 in SW 14.5 mph 30.6 mph 89 % 0.0 in
14:12 9.0 °F 7.3 °F 1021.2 in SW 11.3 mph 33.8 mph 89 % 0.0 in
14:17 9.1 °F 7.4 °F 1020.9 in WSW 22.5 mph 33.8 mph 89 % 0.0 in
14:22 9.2 °F 7.5 °F 1020.9 in West 11.3 mph 33.8 mph 89 % 0.0 in
14:32 9.4 °F 7.7 °F 1021.2 in SW 11.3 mph 33.8 mph 89 % 0.0 in
14:37 9.4 °F 7.5 °F 1020.9 in SW 16.1 mph 33.8 mph 88 % 0.0 in
14:42 9.4 °F 7.5 °F 1020.9 in WSW 12.9 mph 33.8 mph 88 % 0.0 in
14:47 9.4 °F 7.5 °F 1020.9 in West 6.4 mph 30.6 mph 88 % 0.0 in
14:52 9.3 °F 7.4 °F 1020.9 in WSW 14.5 mph 25.7 mph 88 % 0.0 in
14:57 9.3 °F 7.4 °F 1021.2 in WSW 19.3 mph 25.7 mph 88 % 0.0 in
15:02 9.3 °F 7.4 °F 1021.2 in SW 16.1 mph 25.7 mph 88 % 0.0 in
15:07 9.4 °F 7.7 °F 1021.2 in West 11.3 mph 30.6 mph 89 % 0.0 in
15:12 9.3 °F 7.4 °F 1021.2 in WSW 27.4 mph 32.2 mph 88 % 0.0 in
15:17 9.3 °F 7.6 °F 1020.9 in West 11.3 mph 32.2 mph 89 % 0.0 in
15:22 9.3 °F 7.6 °F 1020.9 in WSW 20.9 mph 32.2 mph 89 % 0.0 in
15:27 9.3 °F 7.6 °F 1020.9 in WSW 19.3 mph 33.8 mph 89 % 0.0 in
15:32 9.4 °F 7.7 °F 1020.9 in WSW 19.3 mph 33.8 mph 89 % 0.0 in
15:37 9.4 °F 7.7 °F 1020.9 in WSW 12.9 mph 33.8 mph 89 % 0.0 in
15:42 9.5 °F 7.8 °F 1020.5 in SW 27.4 mph 30.6 mph 89 % 0.0 in
15:47 9.5 °F 7.8 °F 1020.5 in WSW 25.7 mph 30.6 mph 89 % 0.0 in
15:52 9.6 °F 7.9 °F 1020.2 in SW 11.3 mph 30.6 mph 89 % 0.0 in
15:57 9.7 °F 8.0 °F 1020.2 in West 19.3 mph 38.6 mph 89 % 0.0 in
16:02 9.7 °F 7.8 °F 1020.2 in WSW 24.1 mph 38.6 mph 88 % 0.0 in
16:12 9.9 °F 8.2 °F 1020.2 in WSW 20.9 mph 30.6 mph 89 % 0.0 in
16:22 9.9 °F 8.0 °F 1020.2 in West 24.1 mph 29.0 mph 88 % 0.0 in
16:32 9.9 °F 8.0 °F 1020.2 in WSW 14.5 mph 32.2 mph 88 % 0.0 in
16:37 9.9 °F 8.0 °F 1020.5 in West 9.7 mph 37.0 mph 88 % 0.0 in
16:42 9.9 °F 8.0 °F 1020.2 in West 9.7 mph 35.4 mph 88 % 0.0 in
16:47 9.9 °F 8.0 °F 1020.2 in West 9.7 mph 35.4 mph 88 % 0.0 in
16:52 9.8 °F 8.1 °F 1020.2 in West 16.1 mph 35.4 mph 89 % 0.0 in
16:57 9.8 °F 8.1 °F 1020.2 in SW 20.9 mph 33.8 mph 89 % 0.0 in
17:02 9.8 °F 8.1 °F 1020.2 in WSW 16.1 mph 33.8 mph 89 % 0.0 in
17:07 9.8 °F 8.1 °F 1020.2 in SW 14.5 mph 30.6 mph 89 % 0.0 in
17:12 9.8 °F 8.1 °F 1020.2 in SW 11.3 mph 30.6 mph 89 % 0.0 in
17:17 9.8 °F 8.1 °F 1020.2 in WSW 16.1 mph 29.0 mph 89 % 0.0 in
17:22 9.8 °F 8.1 °F 1020.2 in WSW 16.1 mph 29.0 mph 89 % 0.0 in
17:32 9.8 °F 8.1 °F 1020.5 in WNW 20.9 mph 30.6 mph 89 % 0.0 in
17:37 9.8 °F 8.1 °F 1020.9 in West 12.9 mph 37.0 mph 89 % 0.0 in
17:42 9.8 °F 8.1 °F 1020.9 in NW 14.5 mph 32.2 mph 89 % 0.0 in
17:47 9.8 °F 8.1 °F 1020.9 in WSW 16.1 mph 32.2 mph 89 % 0.0 in
17:52 9.8 °F 8.1 °F 1020.5 in WSW 11.3 mph 25.7 mph 89 % 0.0 in
17:57 9.8 °F 8.1 °F 1020.5 in West 19.3 mph 24.1 mph 89 % 0.0 in
18:02 9.8 °F 8.1 °F 1020.5 in WSW 16.1 mph 24.1 mph 89 % 0.0 in
18:07 9.8 °F 8.1 °F 1020.5 in SW 12.9 mph 27.4 mph 89 % 0.0 in
18:17 9.8 °F 8.1 °F 1020.5 in West 14.5 mph 27.4 mph 89 % 0.0 in
18:22 9.8 °F 8.1 °F 1020.5 in WSW 20.9 mph 37.0 mph 89 % 0.0 in
18:32 9.9 °F 8.0 °F 1020.5 in WNW 12.9 mph 37.0 mph 88 % 0.0 in
18:37 9.9 °F 8.0 °F 1020.5 in SW 17.7 mph 37.0 mph 88 % 0.0 in
18:42 9.9 °F 7.8 °F 1020.5 in West 11.3 mph 27.4 mph 87 % 0.0 in
18:52 9.9 °F 8.0 °F 1020.9 in SW 9.7 mph 29.0 mph 88 % 0.0 in
18:57 9.9 °F 7.8 °F 1020.9 in SSW 9.7 mph 24.1 mph 87 % 0.0 in
19:02 9.9 °F 7.8 °F 1020.9 in SW 9.7 mph 24.1 mph 87 % 0.0 in
19:12 9.9 °F 7.8 °F 1020.9 in West 12.9 mph 24.1 mph 87 % 0.0 in
19:17 9.9 °F 7.8 °F 1020.9 in SW 17.7 mph 22.5 mph 87 % 0.0 in
19:22 9.9 °F 7.8 °F 1020.9 in SSW 16.1 mph 22.5 mph 87 % 0.0 in
19:27 10.0 °F 7.9 °F 1020.9 in WSW 14.5 mph 25.7 mph 87 % 0.0 in
19:32 10.0 °F 7.9 °F 1020.9 in WSW 9.7 mph 25.7 mph 87 % 0.0 in
19:42 10.0 °F 7.9 °F 1020.9 in WSW 9.7 mph 25.7 mph 87 % 0.0 in
19:47 10.0 °F 7.9 °F 1020.9 in SW 9.7 mph 24.1 mph 87 % 0.0 in
19:52 10.1 °F 8.0 °F 1021.2 in WSW 12.9 mph 22.5 mph 87 % 0.0 in
19:57 10.1 °F 8.0 °F 1021.2 in SSW 9.7 mph 19.3 mph 87 % 0.0 in
20:02 10.1 °F 8.0 °F 1021.2 in WSW 6.4 mph 19.3 mph 87 % 0.0 in
20:07 10.1 °F 8.0 °F 1021.2 in SSW 3.2 mph 24.1 mph 87 % 0.0 in
20:12 10.1 °F 8.0 °F 1021.6 in WSW 8.0 mph 19.3 mph 87 % 0.0 in
20:17 10.1 °F 8.0 °F 1021.6 in WSW 9.7 mph 19.3 mph 87 % 0.0 in
20:22 10.1 °F 8.0 °F 1021.2 in SW 9.7 mph 19.3 mph 87 % 0.0 in
20:32 10.1 °F 8.2 °F 1021.6 in SSW 4.8 mph 14.5 mph 88 % 0.0 in
20:37 10.1 °F 8.2 °F 1021.6 in WSW 11.3 mph 22.5 mph 88 % 0.0 in
20:42 10.1 °F 8.2 °F 1021.6 in SSW 9.7 mph 22.5 mph 88 % 0.0 in
20:47 10.1 °F 8.2 °F 1021.6 in WSW 9.7 mph 22.5 mph 88 % 0.0 in
20:52 10.1 °F 8.2 °F 1021.6 in SSW 8.0 mph 22.5 mph 88 % 0.0 in
20:57 10.1 °F 8.2 °F 1021.6 in WSW 1.6 mph 22.5 mph 88 % 0.0 in
21:02 10.1 °F 8.2 °F 1021.6 in SSW 3.2 mph 22.5 mph 88 % 0.0 in
21:07 10.1 °F 8.2 °F 1021.6 in West 6.4 mph 16.1 mph 88 % 0.0 in
21:12 10.1 °F 8.2 °F 1021.6 in WSW 6.4 mph 16.1 mph 88 % 0.0 in
21:17 10.1 °F 8.2 °F 1021.6 in SW 8.0 mph 20.9 mph 88 % 0.0 in
21:27 10.1 °F 8.4 °F 1021.6 in West 8.0 mph 20.9 mph 89 % 0.0 in
21:32 10.1 °F 8.4 °F 1021.2 in WSW 11.3 mph 20.9 mph 89 % 0.0 in
21:37 10.1 °F 8.4 °F 1021.6 in SW 9.7 mph 19.3 mph 89 % 0.0 in
21:42 10.1 °F 8.4 °F 1021.6 in SSW 9.7 mph 19.3 mph 89 % 0.0 in
21:47 10.1 °F 8.4 °F 1021.6 in SW 12.9 mph 19.3 mph 89 % 0.0 in
21:57 10.1 °F 8.4 °F 1021.6 in SW 12.9 mph 19.3 mph 89 % 0.0 in
22:02 10.1 °F 8.4 °F 1021.6 in SW 14.5 mph 19.3 mph 89 % 0.0 in
22:07 10.1 °F 8.4 °F 1021.6 in SW 12.9 mph 17.7 mph 89 % 0.0 in
22:17 10.1 °F 8.4 °F 1021.6 in SSW 8.0 mph 17.7 mph 89 % 0.0 in
22:22 10.1 °F 8.4 °F 1021.6 in SW 6.4 mph 17.7 mph 89 % 0.0 in
22:32 10.1 °F 8.4 °F 1021.2 in WSW 8.0 mph 19.3 mph 89 % 0.0 in
22:42 10.0 °F 8.3 °F 1021.2 in SW 12.9 mph 19.3 mph 89 % 0.0 in
22:47 10.0 °F 8.3 °F 1021.2 in WSW 12.9 mph 20.9 mph 89 % 0.0 in
22:52 10.0 °F 8.4 °F 1020.9 in SSW 11.3 mph 20.9 mph 90 % 0.0 in
22:57 9.9 °F 8.3 °F 1020.9 in WSW 6.4 mph 20.9 mph 90 % 0.0 in
23:02 9.9 °F 8.3 °F 1020.9 in West 14.5 mph 20.9 mph 90 % 0.0 in
23:07 9.9 °F 8.3 °F 1020.9 in SW 8.0 mph 22.5 mph 90 % 0.0 in
23:12 9.9 °F 8.3 °F 1020.9 in SW 8.0 mph 22.5 mph 90 % 0.0 in
23:17 9.9 °F 8.3 °F 1020.9 in WSW 11.3 mph 22.5 mph 90 % 0.0 in
23:22 9.9 °F 8.3 °F 1020.9 in WSW 14.5 mph 22.5 mph 90 % 0.0 in
23:32 9.9 °F 8.3 °F 1020.9 in SW 6.4 mph 22.5 mph 90 % 0.0 in
23:37 9.9 °F 8.3 °F 1020.9 in SSW 9.7 mph 25.7 mph 90 % 0.0 in
23:42 9.9 °F 8.3 °F 1021.2 in WNW 11.3 mph 25.7 mph 90 % 0.0 in
23:52 10.0 °F 8.4 °F 1021.2 in West 11.3 mph 25.7 mph 90 % 0.0 in
23:57 10.0 °F 8.4 °F 1021.2 in West 12.9 mph 24.1 mph 90 % 0.0 in
Meteo18
Compliments of Weather Underground - 4 mb

Script developed by  Jim McMurry - jmcmurry@mwt.net Adapted for the template by  Wim van der Kuil - Leuven-Template.eu

You find our weather info also at:

European Weather Network

Weather Underground

Equipment we use:

Weather-station
Davis Vue

Weather-program
Meteobridge

Weather-server
Raspberry PI 2 B+

Provider
1 and 1

Davis Vue

Meteobridge

Raspberry PI 2 B+

1 and 1